CW7945 Weather Reports


Display with metric or nautical units.
time (UTC)temp
F
wind
direction
speed
MPH
gust
MPH
rain 1hr
in
rain 24hr
in
rain mn
in
humidity
%
barometer
mb
20260504175016 71 225 3.0 9.0 0.00 0.00 0.00 41 1011.5
20260504174016 70 248 2.0 12.0 0.00 0.00 0.00 40 1011.5
20260504173016 69 225 5.0 13.0 0.00 0.00 0.00 38 1011.7
20260504172016 69 225 3.0 13.0 0.00 0.00 0.00 39 1011.7
20260504171016 69 248 4.0 15.0 0.00 0.00 0.00 39 1012.0
20260504151037 65 270 1.0 8.0 0.00 0.00 0.00 48 1013.3
20260504141016 61 225 1.0 5.0 0.00 0.00 0.00 59 1013.7
20260504081016 42 0.0 0.0 0.00 0.00 0.00 72 1014.4
20260504050016 46 0.0 0.0 0.00 0.00 0.00 64 1014.1
20260504045016 46 0.0 0.0 0.00 0.00 0.00 64 1014.1
20260504044016 46 0.0 0.0 0.00 0.00 0.00 63 1014.1
20260504043016 47 0.0 0.0 0.00 0.00 0.00 63 1014.0
20260504042016 46 0.0 0.0 0.00 0.00 0.00 63 1013.8
20260504041016 47 0.0 0.0 0.00 0.00 0.00 62 1013.8
20260504040016 47 0.0 0.0 0.00 0.00 0.00 60 1013.7
20260504035510 47 0.0 0.0 0.00 0.00 0.00 60 1013.6
20260504035011 48 0.0 0.0 0.00 0.00 0.00 59 1013.6
20260504034530 48 0.0 0.0 0.00 0.00 0.00 62 1013.6
20260504034010 48 0.0 0.0 0.00 0.00 0.00 59 1013.6
20260504033510 48 0.0 0.0 0.00 0.00 0.00 59 1013.6
20260504033010 48 0.0 0.0 0.00 0.00 0.00 60 1013.5
20260504032511 48 0.0 0.0 0.00 0.00 0.00 59 1013.5
20260504032030 48 0.0 0.0 0.00 0.00 0.00 60 1013.5
20260504031551 48 0.0 0.0 0.00 0.00 0.00 60 1013.5
20260504031010 48 0.0 0.0 0.00 0.00 0.00 59 1013.5
20260504030511 48 0.0 0.0 0.00 0.00 0.00 58 1013.4
20260504030010 48 0.0 0.0 0.00 0.00 0.00 58 1013.4
20260504025510 48 0.0 0.0 0.00 0.00 0.00 58 1013.4
20260504025010 49 0.0 0.0 0.00 0.00 0.00 57 1013.4
20260504024511 49 0.0 0.0 0.00 0.00 0.00 57 1013.4
20260504024010 49 0.0 0.0 0.00 0.00 0.00 56 1013.4
20260504023531 50 0.0 0.0 0.00 0.00 0.00 55 1013.4
20260504023010 50 0.0 0.0 0.00 0.00 0.00 55 1013.4
20260504022511 51 0.0 0.0 0.00 0.00 0.00 53 1013.4
20260504022030 51 0.0 0.0 0.00 0.00 0.00 52 1013.4
20260504021611 51 0.0 0.0 0.00 0.00 0.00 52 1013.4
20260504021010 51 0.0 0.0 0.00 0.00 0.00 52 1013.5
20260504020511 51 0.0 0.0 0.00 0.00 0.00 53 1013.3
20260504020010 51 0.0 0.0 0.00 0.00 0.00 53 1013.3
20260504015511 50 0.0 0.0 0.00 0.00 0.00 53 1013.3
20260504015010 50 0.0 0.0 0.00 0.00 0.00 53 1013.3
20260504014511 50 0.0 0.0 0.00 0.00 0.00 53 1013.2
20260504014010 51 0.0 0.0 0.00 0.00 0.00 52 1013.2
20260504013511 51 0.0 0.0 0.00 0.00 0.00 52 1013.2
20260504013010 52 0.0 0.0 0.00 0.00 0.00 51 1013.2
20260504012510 52 0.0 0.0 0.00 0.00 0.00 50 1013.2
20260504012010 53 0.0 0.0 0.00 0.00 0.00 49 1013.1
20260504011511 53 0.0 0.0 0.00 0.00 0.00 48 1013.0
20260504011010 53 0.0 0.0 0.00 0.00 0.00 48 1012.9
20260504010511 53 0.0 0.0 0.00 0.00 0.00 48 1012.9
20260504010010 53 0.0 0.0 0.00 0.00 0.00 48 1012.8
20260504005511 53 0.0 0.0 0.00 0.00 0.00 48 1012.7
20260504005010 54 0.0 0.0 0.00 0.00 0.00 47 1012.6
20260504004510 54 0.0 0.0 0.00 0.00 0.00 46 1012.6
20260504004010 54 0.0 0.0 0.00 0.00 0.00 45 1012.6
20260504003510 55 0.0 0.0 0.00 0.00 0.00 45 1012.6
20260504003010 55 0.0 0.0 0.00 0.00 0.00 44 1012.5
20260504002510 56 0.0 0.0 0.00 0.00 0.00 44 1012.4
20260504002050 56 0.0 0.0 0.00 0.00 0.00 43 1012.4
20260504001510 56 0.0 0.0 0.00 0.00 0.00 43 1012.3
20260504001031 56 0.0 0.0 0.00 0.00 0.00 42 1012.3
20260504000510 57 0.0 0.0 0.00 0.00 0.00 42 1012.2
20260504000031 57 0.0 0.0 0.00 0.00 0.00 41 1012.1
20260503235510 57 0.0 0.0 0.00 0.00 0.00 41 1012.0
20260503235010 58 0.0 5.0 0.00 0.00 0.00 40 1012.0
20260503234510 58 293 1.0 5.0 0.00 0.00 0.00 39 1012.0
20260503234010 58 0.0 0.0 0.00 0.00 0.00 39 1012.0
20260503233510 58 0.0 1.0 0.00 0.00 0.00 39 1011.9
20260503233010 59 0.0 6.0 0.00 0.00 0.00 39 1011.9
20260503232510 59 0.0 2.0 0.00 0.00 0.00 39 1011.9
20260503232010 59 0.0 3.0 0.00 0.00 0.00 39 1012.0
20260503231511 59 0.0 5.0 0.00 0.00 0.00 38 1012.0
20260503231011 60 293 2.0 10.0 0.00 0.00 0.00 37 1011.9
20260503230511 60 293 1.0 11.0 0.00 0.00 0.00 37 1011.8
20260503230010 60 293 2.0 10.0 0.00 0.00 0.00 36 1011.7
20260503225531 61 338 2.0 12.0 0.00 0.00 0.00 36 1011.7
20260503225010 61 338 1.0 11.0 0.00 0.00 0.00 36 1011.7
20260503224511 61 0 2.0 11.0 0.00 0.00 0.00 36 1011.8
20260503224010 61 293 2.0 10.0 0.00 0.00 0.00 36 1011.7
20260503223511 61 293 2.0 8.0 0.00 0.00 0.00 36 1011.7
20260503223030 61 293 2.0 9.0 0.00 0.00 0.00 35 1011.7
20260503222511 62 0.0 9.0 0.00 0.00 0.00 35 1011.8
20260503222010 62 315 1.0 9.0 0.00 0.00 0.00 35 1011.7
20260503221511 61 293 3.0 9.0 0.00 0.00 0.00 34 1011.7
20260503221010 61 248 1.0 7.0 0.00 0.00 0.00 35 1011.6
20260503220530 62 338 3.0 11.0 0.00 0.00 0.00 34 1011.6
20260503220010 62 293 2.0 11.0 0.00 0.00 0.00 34 1011.6
20260503215510 62 293 3.0 11.0 0.00 0.00 0.00 34 1011.7
20260503215010 62 338 5.0 12.0 0.00 0.00 0.00 33 1011.6
20260503214510 62 293 2.0 11.0 0.00 0.00 0.00 33 1011.6
20260503214010 62 315 2.0 12.0 0.00 0.00 0.00 35 1011.6
20260503213550 62 0 4.0 15.0 0.00 0.00 0.00 34 1011.5
20260503213011 62 23 1.0 8.0 0.00 0.00 0.00 33 1011.5
20260503212510 61 338 2.0 12.0 0.00 0.00 0.00 34 1011.5
20260503212010 61 338 5.0 13.0 0.00 0.00 0.00 33 1011.5
20260503211511 61 338 3.0 17.0 0.00 0.00 0.00 35 1011.6
20260503211010 61 338 5.0 13.0 0.00 0.00 0.00 34 1011.6
20260503210511 61 0 5.0 16.0 0.00 0.00 0.00 34 1011.5
20260503210010 61 270 5.0 14.0 0.00 0.00 0.00 35 1011.5
20260503205511 61 293 3.0 11.0 0.00 0.00 0.00 35 1011.6
20260503205010 61 293 2.0 12.0 0.00 0.00 0.00 35 1011.7
20260503204531 61 293 5.0 17.0 0.00 0.00 0.00 37 1011.8
20260503204030 61 315 4.0 11.0 0.00 0.00 0.00 35 1011.7
20260503203511 60 315 1.0 12.0 0.00 0.00 0.00 38 1011.8
20260503203010 60 293 3.0 12.0 0.00 0.00 0.00 35 1011.9
20260503202510 61 293 4.0 14.0 0.00 0.00 0.00 36 1011.9
20260503202030 60 338 4.0 12.0 0.00 0.00 0.00 37 1011.8
20260503201510 60 315 5.0 16.0 0.00 0.00 0.00 35 1011.8
20260503201010 60 338 3.0 16.0 0.00 0.00 0.00 36 1011.9
20260503200510 60 338 4.0 13.0 0.00 0.00 0.00 35 1012.0
20260503200030 59 315 4.0 14.0 0.00 0.00 0.00 36 1012.0
20260503195510 60 315 5.0 14.0 0.00 0.00 0.00 36 1012.1
20260503195010 60 315 4.0 17.0 0.00 0.00 0.00 37 1012.1
20260503194511 60 270 6.0 14.0 0.00 0.00 0.00 37 1012.0
20260503194030 59 338 4.0 16.0 0.00 0.00 0.00 38 1012.1
20260503193510 59 338 8.0 26.0 0.00 0.00 0.00 36 1012.3
20260503193010 59 0 6.0 15.0 0.00 0.00 0.00 37 1012.1
20260503192510 59 338 6.0 14.0 0.00 0.00 0.00 37 1012.3
20260503192010 60 0 6.0 16.0 0.00 0.00 0.00 36 1012.4
20260503191510 60 315 3.0 12.0 0.00 0.00 0.00 41 1012.3
20260503191010 59 315 4.0 12.0 0.00 0.00 0.00 37 1012.5
20260503190510 58 338 8.0 17.0 0.00 0.00 0.00 37 1012.4
20260503190010 59 338 6.0 16.0 0.00 0.00 0.00 37 1012.6
20260503185510 58 293 3.0 14.0 0.00 0.00 0.00 38 1012.5
20260503185010 58 293 6.0 18.0 0.00 0.00 0.00 37 1012.5
20260503184510 58 338 6.0 15.0 0.00 0.00 0.00 40 1012.6
20260503184010 58 338 4.0 15.0 0.00 0.00 0.00 40 1012.7
20260503183511 57 293 5.0 17.0 0.00 0.00 0.00 41 1012.7
20260503183010 58 338 6.0 16.0 0.00 0.00 0.00 39 1012.8
20260503182530 57 23 5.0 13.0 0.00 0.00 0.00 41 1012.7
20260503182030 58 293 5.0 15.0 0.00 0.00 0.00 41 1012.7
20260503181531 57 338 5.0 18.0 0.00 0.00 0.00 42 1012.7
20260503181010 57 338 5.0 15.0 0.00 0.00 0.00 39 1012.7
20260503180511 57 293 5.0 12.0 0.00 0.00 0.00 39 1012.7
20260503180010 57 338 5.0 16.0 0.00 0.00 0.00 42 1012.8